Regional Weather Roundup
Issued by NWS Kansas City/Pleasant Hill, MO

Home | Current Version | Previous Version | Graphics & Text | Print | Product List | Glossary Off
Versions: 1 2 3 4 5 6 7 8 9 10 11 12 13 14 15 16 17 18 19 20 21 22 23 24 25 26 27 28 29 30 31 32 33 34 35 36 37 38 39 40 41 42 43 44 45 46 47 48 49 50

000
ASUS43 KEAX 270311
RWREAX

WEATHER ROUNDUP FOR EASTERN KANSAS AND NORTHWEST MISSOURI
NATIONAL WEATHER SERVICE KANSAS CITY/PLEASANT HILL MO
1000 PM CDT TUE AUG 26 2014

KSZ040-057-103>105-MOZ028-029-037-043-270400-
...KANSAS CITY METROPOLITAN AREA...

CITY           SKY/WX    TMP DP  RH WIND       PRES   REMARKS
K.C. INTL      CLOUDY    80  72  76 E12       30.08R
K.C. DOWNTOWN  CLOUDY    83  73  72 E9        30.06R
LEES SUMMIT    PTCLDY    80  73  79 E8        30.09R
OLATHE - IXD   CLOUDY    83  74  74 E5        30.08R
OLATHE - OJC   CLOUDY    82  73  74 E8        30.07S
LAWRENCE       LGT RAIN  81  74  79 N3        30.07R

$$

MOZ001>008-011>017-020>025-030>033-038>040-044>046-053-054-270400-
...NORTHERN AND CENTRAL MISSOURI...

CITY           SKY/WX    TMP DP  RH WIND       PRES   REMARKS
ST. JOSEPH     MOCLDY    75  72  90 N5        30.09R
MOSBY          CLOUDY    79  70  73 CALM      30.08S
WHITEMAN AFB   CLEAR     76  67  75 N1        30.07S
CLINTON        CLEAR     75  70  83 CALM      30.07S
SEDALIA        PTCLDY    79  70  74 CALM      30.08S
WARSAW         NOT AVBL
MARSHALL       PTCLDY    81  75  83 NE6       30.09S
CHILLICOTHE      N/A     77  71  82 N3        30.11R
MOBERLY        CLEAR     75  70  83 E3        30.10S
KIRKSVILLE     CLEAR     71  68  90 N6        30.12R

$$

MOZ041-047>049-056>058-063>065-088>090-097-270400-
...EASTERN AND SOUTHERN MISSOURI...

CITY           SKY/WX    TMP DP  RH WIND       PRES   REMARKS
ST. LOUIS INTL MOCLDY    83  72  69 CALM      30.07R
SPIRIT OF STL  MOCLDY    78  73  84 CALM      30.05R
COLUMBIA       MOCLDY    77  71  82 MISG      30.08S
JEFFERSON CITY MOCLDY    78  70  76 CALM      30.06R
MEXICO         MOCLDY   N/A N/A N/A CALM      30.09R
HANNIBAL       CLEAR     77  72  83 N5        30.09S
ROLLA          CLOUDY    74  67  78 CALM      30.08R
LEBANON        MOCLDY    73  70  88 CALM      30.11R
OSAGE BEACH    CLOUDY    73  66  78 W5        30.07S
SPRINGFIELD    MOCLDY    75  69  81 NW3       30.09R
BRANSON        PTCLDY    81  66  61 CALM      30.10R
NEVADA         PTCLDY    75  66  73 SE7       30.07S
JOPLIN         MOCLDY    79  67  66 NE8       30.09R
WEST PLAINS    CLEAR     81  67  62 S5        30.10R

$$

IAZ060-094-KSZ022-034>040-054-083-096-NEZ052-066-093-270400-
...KANSAS...SOUTHEAST NEBRASKA AND IOWA...

CITY           SKY/WX    TMP DP  RH WIND       PRES   REMARKS
TOPEKA         CLOUDY    78  71  79 NE5       30.07S
MANHATTAN      PTCLDY    75  68  78 NE6       30.07R
EMPORIA        CLOUDY    77  68  73 CALM      30.08R
CHANUTE        MOCLDY    86  67  52 E10       30.06R
WICHITA        CLOUDY    80  71  74 E3        30.06R
OMAHA          MOCLDY    73  66  78 E3        30.12R
LINCOLN        CLEAR     73  67  81 E8        30.12R
FALLS CITY     CLEAR     74  71  91 E7        30.09S
LAMONI         PTCLDY    70  67  90 NE5       30.13S
DES MOINES     MOCLDY    74  63  68 E3        30.12S

$$



USA.gov is the U.S. government's official web portal to all federal, state and local government web resources and services.